sat.trackr.live / text

‹ back to catalog

STARLINK-5842

NORAD 56491 · 2023-064AV

PAYLOAD ACTIVE UNKNOWN

§ Identity

Operator
Country
US
Launch date
2023-05-10
Launch site
AFWTR
Launch vehicle
Mass (kg)
RCS (m²)

Purposes: comms

External: N2YO · Heavens-Above · Gunter

§ Orbital elements

Epoch: 2026-05-24T19:17:04.882272Z

Period
96.11 min
Inclination
69.9991°
Eccentricity
0.0003071
Mean motion
14.98334072 rev/d
Perigee alt
569.9 km
Apogee alt
574.2 km
Semi-major
6,950.2 km
B*
8.0816e-5
RAAN
272.5404°
Arg perigee
268.3585°
Mean anomaly
91.7222°
Rev number
16,763

§ Raw data

STARLINK-58421 56491U 23064AV  26144.80352873  .00000871  00000+0  80816-4 0  99952 56491  69.9991 272.5404 0003071 268.3585  91.7222 14.98334072167639

JSON: /api/v1/satellites/56491 · /tle

For live sub-satellite position, see the globe view (requires WebGL).

§ Visibility from observer

Set your observer location to see the next 7 days of passes ≥ 10°. The values pass through the URL so the page stays shareable.

No JS? Fill the form by hand. The geolocation button needs JavaScript.